Overview Statistics Trail Chart Weather Telemetry Raw packets
 

This is the latest recevied weather packets stored in our database for station/object VK5GR-12. If no packets are shown the sender has not sent any weather packets the latest 10 day(s).

<< 5 6 7 8 9 10 11 >>
Time Temp. Humidity Pressure Rain* Wind** Luminosity Snow
1788513750 18.33° C 79% 1009.1 hPa 1.27 mm - 0 W/m² -
1788512848 18.33° C 79% 1009.2 hPa 0 mm - 0 W/m² -
1788511945 18.33° C 78% 1009.3 hPa 0 mm - 0 W/m² -
1788511044 18.33° C 79% 1009.3 hPa 0 mm - 1 W/m² -
1788510142 18.33° C 80% 1009.4 hPa 0 mm - 3 W/m² -
1788509240 18.89° C 79% 1009.2 hPa 0 mm - 8 W/m² -
1788508338 18.89° C 79% 1009.3 hPa 0 mm - 19 W/m² -
1788507434 18.89° C 79% 1009.6 hPa 0 mm - 32 W/m² -
1788506532 19.44° C 78% 1009.5 hPa 0 mm - 60 W/m² -
1788505628 19.44° C 78% 1009.7 hPa 0 mm - 103 W/m² -
1788504725 19.44° C 78% 1009.8 hPa 0 mm - 109 W/m² -
1788503821 19.44° C 74% 1009.9 hPa 0 mm - 42 W/m² -
1788502920 20° C 72% 1010 hPa 0 mm - 66 W/m² -
1788502020 20° C 71% 1010 hPa 0 mm - 109 W/m² -
1788501117 20° C 70% 1010.2 hPa 0 mm - 172 W/m² -
1788500215 20° C 70% 1010.1 hPa 0 mm - 244 W/m² -
1788499314 19.44° C 73% 1010.4 hPa 0 mm - 255 W/m² -
1788498411 18.33° C 75% 1010.9 hPa 0 mm - 225 W/m² -
1788497507 18.33° C 75% 1010.9 hPa 0 mm - 121 W/m² -
1788496607 18.33° C 76% 1011.1 hPa 0 mm - 82 W/m² -
1788495706 17.78° C 76% 1011.2 hPa 0 mm - 121 W/m² -
1788494805 17.78° C 75% 1011.4 hPa 0 mm - 92 W/m² -
1788493902 17.78° C 74% 1011.9 hPa 0 mm - 86 W/m² -
1788492999 18.33° C 71% 1012.3 hPa 0 mm - 183 W/m² -
1788492096 18.33° C 76% 1012.6 hPa 0 mm - 630 W/m² -

* Rain latest hour (hover to see other rain measurements)
** Current wind speed in m/s (hover to see current wind gust speed)